TimeAKDT,TemperatureF,Dew PointF,Humidity,Sea Level PressureIn,VisibilityMPH,Wind Direction,Wind SpeedMPH,Gust SpeedMPH,PrecipitationIn,Events,Conditions,WindDirDegrees,DateUTC
12:02 AM,33.8,30.2,87,29.99,10.0,Calm,Calm,-,N/A,,Overcast,0,2013-03-17 08:02:00
12:53 AM,33.1,30.9,92,29.99,10.0,NNW,5.8,-,N/A,,Overcast,330,2013-03-17 08:53:00
1:53 AM,32.0,30.0,92,29.99,10.0,East,5.8,-,N/A,,Mostly Cloudy,100,2013-03-17 09:53:00
2:53 AM,33.1,30.9,92,29.99,10.0,East,4.6,-,N/A,,Overcast,90,2013-03-17 10:53:00
3:53 AM,30.9,28.9,92,29.99,10.0,Calm,Calm,-,N/A,,Overcast,0,2013-03-17 11:53:00
4:53 AM,32.0,30.0,92,29.99,10.0,East,3.5,-,N/A,,Overcast,100,2013-03-17 12:53:00
5:53 AM,32.0,30.0,92,29.98,10.0,East,3.5,-,N/A,,Overcast,100,2013-03-17 13:53:00
6:53 AM,32.0,30.0,92,29.98,10.0,Calm,Calm,-,N/A,,Overcast,0,2013-03-17 14:53:00
7:44 AM,33.8,30.2,87,29.98,10.0,Calm,Calm,-,N/A,,Overcast,0,2013-03-17 15:44:00
7:53 AM,33.1,30.0,89,29.99,10.0,Calm,Calm,-,N/A,,Overcast,0,2013-03-17 15:53:00
8:53 AM,33.1,30.0,89,29.99,8.0,SE,8.1,-,0.00,Snow,Light Snow,130,2013-03-17 16:53:00
9:53 AM,34.0,28.9,82,29.99,10.0,SE,3.5,-,0.00,,Overcast,140,2013-03-17 17:53:00
10:53 AM,36.0,28.9,76,29.99,10.0,South,3.5,-,0.00,Snow,Light Snow,170,2013-03-17 18:53:00
11:42 AM,35.6,33.8,93,30.00,8.0,SSW,5.8,-,0.00,Snow,Light Snow,210,2013-03-17 19:42:00
11:53 AM,35.1,33.1,92,30.00,3.0,South,3.5,-,0.00,Snow,Light Snow,180,2013-03-17 19:53:00
12:22 PM,35.6,33.8,93,30.00,9.0,South,8.1,-,0.00,,Overcast,180,2013-03-17 20:22:00
12:42 PM,35.6,33.8,93,30.00,5.0,South,8.1,-,0.00,Snow,Light Snow,180,2013-03-17 20:42:00
12:53 PM,36.0,35.1,97,30.00,8.0,SSW,6.9,-,0.00,Snow,Light Snow,200,2013-03-17 20:53:00
1:35 PM,35.6,33.8,93,30.00,10.0,SE,5.8,-,0.00,,Overcast,140,2013-03-17 21:35:00
1:53 PM,36.0,33.1,89,30.00,10.0,SE,4.6,-,0.00,,Overcast,140,2013-03-17 21:53:00
2:27 PM,35.6,33.8,93,30.00,10.0,South,10.4,-,N/A,,Overcast,190,2013-03-17 22:27:00
2:35 PM,35.6,33.8,93,30.00,1.0,South,10.4,-,0.01,Snow,Light Snow,180,2013-03-17 22:35:00
2:50 PM,35.6,33.8,93,30.00,3.0,South,6.9,-,0.02,Snow,Light Snow,170,2013-03-17 22:50:00
2:53 PM,35.1,33.1,92,30.00,3.0,SSE,8.1,-,0.02,Snow,Light Snow,160,2013-03-17 22:53:00
3:29 PM,35.6,33.8,93,29.99,10.0,South,10.4,-,0.00,,Overcast,190,2013-03-17 23:29:00
3:53 PM,35.1,33.1,92,29.99,7.0,West,5.8,-,0.02,Snow,Light Snow,280,2013-03-17 23:53:00
4:21 PM,35.6,33.8,93,29.99,10.0,Calm,Calm,-,0.00,,Overcast,0,2013-03-18 00:21:00
4:53 PM,36.0,34.0,93,29.99,10.0,Calm,Calm,-,0.00,,Mostly Cloudy,0,2013-03-18 00:53:00
5:53 PM,36.0,34.0,93,29.96,10.0,ESE,6.9,-,N/A,,Overcast,110,2013-03-18 01:53:00
6:18 PM,35.6,33.8,93,29.94,6.0,East,6.9,-,0.00,Snow,Light Snow,100,2013-03-18 02:18:00
6:53 PM,34.0,33.1,96,29.95,3.0,NW,5.8,-,0.05,Snow,Light Snow,320,2013-03-18 02:53:00
6:58 PM,33.8,33.8,100,29.95,1.8,NW,3.5,-,0.01,Snow,Light Snow,310,2013-03-18 02:58:00
7:00 PM,33.8,33.8,100,29.95,1.2,Calm,Calm,-,0.02,Snow,Light Snow,0,2013-03-18 03:00:00
7:08 PM,33.8,33.8,100,29.95,1.5,Calm,Calm,-,0.03,Snow,Light Snow,0,2013-03-18 03:08:00
7:26 PM,33.8,33.8,100,29.95,1.0,Calm,Calm,-,0.07,Snow,Light Snow,0,2013-03-18 03:26:00
7:33 PM,33.8,33.8,100,29.96,0.8,Variable,5.8,-,0.10,Snow,Light Snow,0,2013-03-18 03:33:00
7:49 PM,33.8,33.8,100,29.95,1.5,East,3.5,-,0.12,Snow,Light Snow,100,2013-03-18 03:49:00
7:53 PM,33.1,33.1,100,29.95,2.0,Calm,Calm,-,0.13,Snow,Light Snow,0,2013-03-18 03:53:00
8:02 PM,33.8,33.8,100,29.95,1.2,Calm,Calm,-,0.01,Snow,Light Snow,0,2013-03-18 04:02:00
8:16 PM,33.8,32.0,93,29.95,3.0,East,6.9,-,0.03,Snow,Light Snow,80,2013-03-18 04:16:00
8:53 PM,33.1,33.1,100,29.94,6.0,ENE,5.8,-,0.03,Snow,Light Snow,70,2013-03-18 04:53:00
9:26 PM,33.8,33.8,100,29.93,4.0,ESE,3.5,-,0.03,Rain,Light Rain,120,2013-03-18 05:26:00
9:33 PM,33.8,33.8,100,29.93,10.0,ENE,4.6,-,0.03,,Overcast,70,2013-03-18 05:33:00
9:53 PM,34.0,33.1,96,29.94,10.0,East,6.9,-,0.03,,Overcast,80,2013-03-18 05:53:00
10:42 PM,35.6,33.8,93,29.93,10.0,ESE,3.5,-,0.01,Rain,Light Rain,110,2013-03-18 06:42:00
10:53 PM,36.0,33.1,89,29.93,10.0,West,6.9,-,0.01,Rain,Light Rain,260,2013-03-18 06:53:00
11:12 PM,35.6,33.8,93,29.93,10.0,WSW,5.8,-,0.00,Rain,Light Rain,250,2013-03-18 07:12:00
11:35 PM,35.6,33.8,93,29.93,10.0,WSW,4.6,-,0.00,,Overcast,240,2013-03-18 07:35:00
11:53 PM,34.0,32.0,92,29.93,10.0,ENE,4.6,-,0.00,Rain,Light Rain,70,2013-03-18 07:53:00
11:59 PM,33.8,32.0,93,29.92,10.0,ENE,5.8,-,N/A,,Overcast,70,2013-03-18 07:59:00